[[{"header":{"parameterUnit":"m.s-1","parameterCategory":1,"la1":30.2991,"la2":30.254,"lo1":-89.0895,"lo2":-89.0444,"dy":0.0017,"dx":0.0017,"nx":28,"ny":28,"refTime":"2024-12-20T09:00:00:Z","depth":0,"parameterNumber":2,"parameterNumberName":"U-component_of_WINDS"},"data":[0,0,0,0,0,0,0,0,0,0,0,0,0,0,0,0,0,0,0,0,0,0,0,0,0,0,0,0,0,0,0,0,0,0,0,0,0,0,0,0,0,0,0,0,0,0,0,0,0,0,0,0,0,0,0,0,0,0,2.7427,2.7427,0,2.7479,2.748,2.748,2.7438,2.7436,2.7434,2.7433,2.7487,2.749,2.7493,0,0,0,0,0,0,0,0,0,0,0,0,0,2.7292,2.7295,2.7427,2.7427,2.7428,2.7479,2.748,2.748,2.7438,2.7436,2.7434,2.7432,2.7486,2.7489,2.7493,0,0,0,0,0,0,0,0,0,0,0,0,0,2.7348,2.7296,2.7427,2.7413,2.7412,2.7479,2.748,2.7481,2.7439,2.7436,2.7433,2.7431,2.7485,2.7489,2.7494,2.7576,0,0,2.7508,2.751,0,0,0,0,0,0,0,0,2.7345,2.7353,2.7414,2.7414,2.7414,2.7449,2.7452,2.7513,2.7439,2.7429,2.7433,2.743,2.7476,2.7482,2.7497,2.7579,2.7581,2.7508,2.7511,2.7513,2.7514,0,0,0,0,0,0,0,2.7341,2.7351,2.7447,2.7415,2.7415,2.7405,2.741,2.7463,2.7467,2.743,2.7427,2.7433,2.7476,2.7493,2.7498,2.7582,2.7508,2.7512,2.7515,2.7517,2.7736,2.7739,0,0,0,0,0,0,2.7339,2.7348,2.7446,2.7449,2.7372,2.741,2.7415,2.744,2.7466,2.7468,2.7436,2.7431,2.7486,2.7493,2.75,2.76,2.7513,2.7517,2.752,2.7733,2.7737,2.774,0,0,0,0,0,0,2.7336,2.7348,2.7444,2.7398,2.7409,2.7415,2.7444,2.7443,2.746,2.7471,2.7471,2.7452,2.7484,2.7493,2.7558,2.7601,2.752,2.7524,2.7729,2.7734,2.7738,2.78,0,0,0,0,0,0,2.7332,2.7347,2.7378,2.7399,2.7412,2.75,2.7446,2.7446,2.7468,2.7463,2.7487,2.7488,2.7483,2.7551,2.7563,2.7606,2.7527,2.7726,2.7731,2.7737,2.7794,2.7806,2.7816,0,0,0,0,0,2.7328,2.7393,2.738,2.7392,2.745,2.7503,2.751,2.7503,2.7472,2.7503,2.7511,2.7487,2.7595,2.7558,2.7571,2.7616,2.7723,2.773,2.7736,2.7789,2.7803,2.7816,0,0,0,0,0,0,2.7376,2.7395,2.7381,2.7454,2.7477,2.7496,2.7535,2.7518,2.755,2.7544,2.7534,2.754,2.7608,2.7618,2.7578,2.7699,2.7654,2.7663,2.7689,2.7703,2.7714,2.771,2.7531,0,0,0,0,0,2.7396,2.7436,2.745,2.7514,2.7526,2.7529,2.7551,2.7544,2.7567,2.7577,2.7589,2.7613,2.7652,2.7678,2.7715,2.7795,2.7801,2.7833,2.7844,2.7853,2.7861,2.7907,2.7922,2.7762,2.7762,2.7762,0,0,2.7436,2.7451,2.7477,2.7524,2.7541,2.7585,2.7537,2.7584,2.7617,2.7584,2.7646,2.7656,2.7682,2.7756,2.7789,2.7767,2.7907,2.7861,2.7868,2.7872,2.7915,2.7931,2.7944,2.7767,2.7766,2.7765,0,0,2.7531,2.7546,2.7602,2.762,2.7647,2.7648,2.7662,2.7683,2.7689,2.7751,2.7728,2.7767,2.7834,2.7854,2.7874,2.798,2.796,2.7992,2.805,2.8094,2.8107,2.8118,2.8158,2.8172,2.8,2.8001,2.8001,0,2.7578,2.7642,2.7632,2.7682,2.7705,2.7677,2.7735,2.7753,2.779,2.7807,2.7781,2.7867,2.7882,2.7961,2.7987,2.8003,2.802,2.7989,2.8106,2.8117,2.8127,2.8165,2.8179,2.8004,2.8004,2.8003,2.8003,0,2.7699,2.7744,2.7785,2.7823,2.785,2.7903,2.7903,2.7931,2.7922,2.7927,2.7992,2.801,2.8051,2.8069,2.8059,2.8147,2.8133,2.8107,2.8062,2.8146,2.8182,2.8196,2.801,2.8008,2.8007,2.8006,0,0,2.7825,2.7858,2.7874,2.7892,2.792,2.7955,2.8008,2.8048,2.8073,2.8101,2.8146,2.8204,2.8181,2.8203,2.8196,2.8235,2.8321,2.8205,2.8205,2.8227,2.8421,2.8441,2.8458,2.8308,2.8311,2.8313,2.8419,0,2.7923,2.8015,2.8009,2.8096,2.8138,2.8114,2.816,2.8184,2.819,2.8228,2.8234,2.8277,2.8242,2.8256,2.8293,2.8302,2.836,2.8295,2.8351,2.8353,2.8346,2.8476,2.8497,2.8596,2.8433,2.8435,2.8437,0,2.8049,2.8082,2.8173,2.8197,2.8215,2.8256,2.8294,2.833,2.8356,2.8358,2.8384,2.8372,2.8426,2.838,2.8456,2.8412,2.8435,2.8443,2.8447,2.8453,2.84,2.8486,2.8627,2.8643,2.8458,2.8456,2.8455,0,2.8135,2.8201,2.8265,2.828,2.831,2.834,2.8354,2.8377,2.8403,2.8436,2.8453,2.8491,2.8513,2.8544,2.8543,2.8509,2.8622,2.8574,2.8626,2.8626,2.8651,2.8649,2.8799,2.8664,2.8664,2.8664,2.8663,0,2.8245,2.8302,2.8304,2.8343,2.8407,2.84,2.8464,2.8474,2.8496,2.8538,2.852,2.8559,2.8555,2.8596,2.8595,2.866,2.8669,2.8673,2.8673,2.8676,2.8675,2.8691,2.8685,2.8668,2.8667,2.8666,2.8665,0,2.8351,2.8354,2.8422,2.8445,2.8452,2.8499,2.8518,2.8556,2.8562,2.8615,2.8627,2.8636,2.8683,2.8685,2.8739,2.8739,2.8818,2.8809,2.8809,2.8808,2.886,2.8855,2.9025,2.9048,2.8897,2.8899,2.89,0,2.8422,2.8465,2.8493,2.852,2.8536,2.8579,2.8605,2.8601,2.8629,2.8664,2.8699,2.8744,2.878,2.8856,2.8868,2.891,2.8902,2.8959,2.8908,2.8911,2.8905,2.8903,2.8908,2.8969,2.8971,2.8972,2.8973,0,2.8548,2.8548,2.8586,2.8626,2.8658,2.8689,2.8717,2.874,2.874,2.8773,2.8821,2.8849,2.8905,2.8951,2.8992,2.9007,2.8991,2.8989,2.9004,2.9007,2.9006,2.9009,2.8837,2.8985,2.8984,2.8983,2.8983,2.8982,2.8639,2.8678,2.8704,2.8748,2.8769,2.8797,2.8835,2.8845,2.8885,2.893,2.8926,2.898,2.9007,2.9061,2.908,2.9122,2.9103,2.9123,2.9129,2.9134,2.9141,2.8999,2.913,2.9129,2.9129,2.9129,2.9128,0,2.8765,2.8782,2.8822,2.8864,2.8899,2.8881,2.8912,2.8943,2.8991,2.9017,2.9054,2.911,2.9155,2.9171,2.9215,2.9247,2.9241,2.9259,2.9257,2.9261,2.9155,2.9138,2.9263,2.9263,2.9263,2.9263,2.9263,2.9263,2.8835,2.89,2.8903,2.8979,2.8995,2.9048,2.9068,2.9094,2.9116,2.918,2.9217,2.9227,2.925,2.9296,2.9338,2.9341,2.9359,2.938,2.9381,2.9282,2.9268,2.9255,2.924,2.9384,2.9384,2.9484,2.9485,2.9486]},{"header":{"parameterUnit":"m.s-1","parameterCategory":1,"la1":30.2991,"la2":30.254,"lo1":-89.0895,"lo2":-89.0444,"dy":0.0017,"dx":0.0017,"nx":28,"ny":28,"refTime":"2024-12-20T09:00:00:Z","depth":0,"parameterNumber":3,"parameterNumberName":"V-component_of_WINDS"},"data":[0,0,0,0,0,0,0,0,0,0,0,0,0,0,0,0,0,0,0,0,0,0,0,0,0,0,0,0,0,0,0,0,0,0,0,0,0,0,0,0,0,0,0,0,0,0,0,0,0,0,0,0,0,0,0,0,0,0,-5.9963,-5.9965,0,-6.016,-6.0163,-6.0165,-6.0151,-6.0149,-6.0146,-6.0143,-6.0344,-6.0352,-6.036,0,0,0,0,0,0,0,0,0,0,0,0,0,-5.9577,-5.9584,-5.9963,-5.9966,-5.9968,-6.016,-6.0163,-6.0165,-6.0152,-6.0148,-6.0145,-6.0142,-6.0341,-6.0351,-6.036,0,0,0,0,0,0,0,0,0,0,0,0,0,-5.9756,-5.9586,-5.9963,-5.9985,-5.9989,-6.0159,-6.0163,-6.0166,-6.0153,-6.0148,-6.0144,-6.014,-6.0338,-6.035,-6.0362,-6.0523,0,0,-6.0399,-6.0404,0,0,0,0,0,0,0,0,-5.9746,-5.977,-5.9979,-5.9983,-5.9988,-6.0127,-6.01,-6.0286,-6.0154,-6.009,-6.0143,-6.0138,-6.0275,-6.0292,-6.0339,-6.0533,-6.0541,-6.04,-6.0407,-6.0412,-6.0416,0,0,0,0,0,0,0,-5.9734,-5.9762,-6.0041,-5.9982,-5.9988,-5.9985,-6.0006,-6.0135,-6.0205,-6.0096,-6.0095,-6.0119,-6.0277,-6.0327,-6.0343,-6.0544,-6.0399,-6.041,-6.0418,-6.0422,-6.0884,-6.0889,0,0,0,0,0,0,-5.9716,-5.9752,-6.0035,-6.0047,-5.9854,-5.9996,-6.0019,-6.0087,-6.0203,-6.0217,-6.0122,-6.0117,-6.0308,-6.0329,-6.035,-6.055,-6.0412,-6.0423,-6.043,-6.088,-6.0886,-6.0891,0,0,0,0,0,0,-5.9708,-5.9742,-6.0027,-5.9899,-5.9935,-6.0007,-6.0083,-6.0093,-6.0143,-6.0223,-6.0236,-6.0161,-6.0306,-6.0333,-6.0481,-6.0556,-6.0429,-6.044,-6.0874,-6.0881,-6.0888,-6.0948,0,0,0,0,0,0,-5.9697,-5.9739,-5.98,-5.9901,-5.9942,-6.0155,-6.0088,-6.01,-6.0164,-6.016,-6.0263,-6.0276,-6.0305,-6.0463,-6.0493,-6.0571,-6.0449,-6.0867,-6.0877,-6.0886,-6.094,-6.0957,-6.0971,0,0,0,0,0,-5.9683,-5.9809,-5.9804,-5.9838,-6.0021,-6.0159,-6.0183,-6.0213,-6.017,-6.0233,-6.0285,-6.0272,-6.0543,-6.0479,-6.0512,-6.0594,-6.0863,-6.0874,-6.0885,-6.0933,-6.0953,-6.0971,0,0,0,0,0,0,-5.9714,-5.9822,-5.9818,-5.9979,-6.006,-6.0156,-6.0237,-6.0234,-6.0328,-6.032,-6.0354,-6.0378,-6.0527,-6.0575,-6.0502,-6.0758,-6.0697,-6.0716,-6.0722,-6.0742,-6.0757,-6.0743,-6.0459,0,0,0,0,0,-5.974,-5.9843,-5.9931,-6.0065,-6.0106,-6.0165,-6.0226,-6.0243,-6.0328,-6.0362,-6.0424,-6.0508,-6.0612,-6.0679,-6.0779,-6.0946,-6.097,-6.102,-6.1035,-6.1048,-6.1064,-6.1158,-6.1182,-6.0928,-6.0928,-6.0928,0,0,-5.9794,-5.9866,-5.9928,-6.0074,-6.0138,-6.0245,-6.0193,-6.0307,-6.0387,-6.0379,-6.0524,-6.0573,-6.0668,-6.0827,-6.09,-6.0871,-6.1139,-6.1062,-6.1072,-6.1081,-6.1173,-6.1197,-6.1218,-6.0936,-6.0934,-6.0933,0,0,-5.9947,-6.0011,-6.0131,-6.0197,-6.0296,-6.0335,-6.0364,-6.0461,-6.0494,-6.064,-6.0637,-6.0732,-6.0909,-6.0978,-6.1036,-6.1219,-6.1211,-6.125,-6.1333,-6.1425,-6.1445,-6.1463,-6.153,-6.1553,-6.1266,-6.1266,-6.1266,0,-6.0002,-6.0162,-6.0193,-6.0309,-6.0374,-6.0372,-6.0495,-6.0558,-6.0684,-6.073,-6.0696,-6.0921,-6.0985,-6.1161,-6.1206,-6.1252,-6.1288,-6.1239,-6.1439,-6.1458,-6.1475,-6.1539,-6.1564,-6.127,-6.127,-6.1269,-6.1269,0,-6.0225,-6.0337,-6.0422,-6.0546,-6.062,-6.0738,-6.0788,-6.086,-6.0871,-6.0914,-6.1063,-6.114,-6.1256,-6.1299,-6.1311,-6.1479,-6.1458,-6.1432,-6.1371,-6.1503,-6.1564,-6.1589,-6.1276,-6.1275,-6.1273,-6.1272,0,0,-6.0402,-6.0544,-6.0574,-6.0632,-6.0742,-6.0829,-6.0949,-6.1064,-6.1125,-6.1213,-6.1315,-6.1467,-6.1444,-6.151,-6.153,-6.161,-6.1753,-6.1574,-6.1577,-6.1606,-6.1945,-6.1965,-6.1993,-6.1748,-6.1753,-6.1757,-6.1938,0,-6.0568,-6.078,-6.0813,-6.1,-6.1105,-6.1106,-6.121,-6.129,-6.1333,-6.1429,-6.1476,-6.1584,-6.1545,-6.1585,-6.1665,-6.1718,-6.1821,-6.1706,-6.1845,-6.1849,-6.1822,-6.2025,-6.2046,-6.2214,-6.1962,-6.1966,-6.1969,0,-6.079,-6.0885,-6.1083,-6.1182,-6.1227,-6.132,-6.143,-6.1521,-6.1612,-6.1638,-6.1713,-6.1723,-6.1848,-6.1782,-6.1956,-6.1877,-6.1936,-6.1971,-6.1978,-6.1993,-6.1918,-6.2047,-6.2267,-6.2293,-6.2006,-6.2003,-6.2001,0,-6.0902,-6.108,-6.1222,-6.127,-6.1389,-6.1455,-6.1507,-6.1594,-6.1662,-6.1757,-6.1802,-6.1911,-6.1971,-6.2055,-6.2095,-6.2042,-6.2267,-6.2203,-6.2294,-6.2293,-6.2341,-6.2338,-6.2576,-6.2377,-6.2377,-6.2376,-6.2375,0,-6.1084,-6.1206,-6.1274,-6.1361,-6.1498,-6.1535,-6.167,-6.172,-6.1798,-6.1896,-6.1903,-6.1995,-6.2042,-6.2141,-6.2173,-6.2314,-6.234,-6.2365,-6.2373,-6.2366,-6.2363,-6.2405,-6.2395,-6.2383,-6.2381,-6.238,-6.2379,0,-6.1232,-6.1283,-6.1438,-6.1538,-6.1566,-6.1663,-6.1749,-6.1835,-6.1878,-6.2002,-6.2034,-6.2102,-6.222,-6.2268,-6.2411,-6.2433,-6.2595,-6.2593,-6.2565,-6.2568,-6.2656,-6.2647,-6.293,-6.297,-6.2743,-6.2746,-6.2747,0,-6.1346,-6.144,-6.1551,-6.1618,-6.1672,-6.1779,-6.1849,-6.189,-6.1963,-6.2075,-6.2148,-6.2265,-6.2362,-6.255,-6.2613,-6.2723,-6.2724,-6.2816,-6.2741,-6.2732,-6.2728,-6.2723,-6.2733,-6.283,-6.2832,-6.2834,-6.2836,0,-6.1543,-6.1565,-6.1665,-6.1776,-6.186,-6.1949,-6.2035,-6.209,-6.2144,-6.2225,-6.2346,-6.2421,-6.2569,-6.2687,-6.2802,-6.2856,-6.2856,-6.2859,-6.2886,-6.288,-6.2861,-6.2875,-6.2604,-6.2852,-6.2851,-6.2849,-6.2848,-6.2848,-6.1679,-6.1764,-6.1856,-6.1969,-6.2039,-6.212,-6.2207,-6.2262,-6.2364,-6.2488,-6.2505,-6.2636,-6.2727,-6.2881,-6.294,-6.3043,-6.302,-6.3058,-6.3068,-6.3078,-6.3085,-6.2844,-6.3064,-6.3063,-6.3063,-6.3063,-6.3062,0,-6.1879,-6.1939,-6.2042,-6.2164,-6.2254,-6.2246,-6.2342,-6.2418,-6.2533,-6.2618,-6.2713,-6.2854,-6.2968,-6.3041,-6.3157,-6.3225,-6.3229,-6.3255,-6.3251,-6.3264,-6.3098,-6.3064,-6.3251,-6.3251,-6.325,-6.325,-6.325,-6.325,-6.1993,-6.2136,-6.2169,-6.2348,-6.2407,-6.2535,-6.2591,-6.2667,-6.2736,-6.2892,-6.2988,-6.3035,-6.3116,-6.3238,-6.3344,-6.3362,-6.3405,-6.3434,-6.3451,-6.3295,-6.3275,-6.3256,-6.3225,-6.3442,-6.3443,-6.3608,-6.361,-6.3611]}]]